Temp
8 8 8 8 9 10 10 10 10 10 10 10 10 10 11 11 11 11 11 11 11 11 11 11 11 11 12 12 12 11 11 11 11 12 12 12 11 11 11 11 11 11 11 11 11 11 11 10 11 11 11 11 11 11 11 11 11 11 10 10 10 10 10 10 10 10 10 10 10
8 8 8 8 9 10 10 10 10 10 10 10 10 10 10 11 11 11 11 11 11 11 11 11 11 11 12 12 11 11 11 11 11 12 12 12 11 11 11 11 11 11 11 11 11 11 10 10 10 11 11 11 11 10 10 10 10 10 10 10 10 10 10 10 10 10 10 10 10
8 8 8 8 9 10 10 10 10 10 10 10 10 10 11 11 11 11 11 10 10 11 11 11 11 11 12 11 11 11 11 12 12 12 12 12 11 11 11 11 11 11 11 11 11 11 10 10 10 11 11 10 10 10 10 10 10 10 10 10 10 10 10 10 10 10 10 10 10
8 8 8 9 9 10 10 10 9 10 10 10 10 10 11 11 11 11 11 10 10 10 11 11 11 11 11 11 11 11 11 12 12 12 12 12 11 11 11 11 11 11 11 11 11 10 10 10 10 11 10 10 10 10 10 10 10 10 10 10 10 10 10 10 10 10 10 10 10
8 8 8 9 9 10 10 9 9 9 10 10 10 11 11 11 11 11 10 10 10 10 11 11 11 11 11 11 11 11 11 11 11 12 12 11 11 11 11 10 10 11 11 10 10 10 10 10 10 10 10 10 10 10 10 9 9 9 9 10 10 10 10 10 10 10 10 10 10
7 8 8 9 9 9 9 9 9 9 9 10 10 11 11 11 11 11 10 10 10 10 10 11 11 11 11 11 11 11 11 11 11 11 11 11 11 11 10 10 10 11 10 10 10 10 10 10 10 10 10 10 9 9 9 9 9 9 10 10 10 10 10 10 11 11 11 10 10
8 8 9 9 9 9 9 9 9 9 9 10 10 11 11 11 11 10 10 10 10 10 10 10 11 11 11 11 11 11 11 11 11 11 11 11 11 11 10 10 10 10 10 10 10 10 10 10 10 10 9 9 9 9 9 9 9 10 10 10 10 10 11 11 11 11 10 10 10
8 8 9 9 9 9 9 9 9 9 9 10 10 10 11 11 10 10 10 10 10 10 10 10 11 11 11 11 11 11 11 11 11 11 11 11 11 10 10 10 10 10 10 10 10 10 10 10 10 9 9 9 9 9 9 9 10 10 11 11 11 11 11 11 10 10 10 10 10
8 8 9 8 8 9 9 9 9 9 10 10 10 10 10 10 10 10 10 10 10 10 10 11 11 11 11 11 11 11 11 11 11 11 11 11 10 10 10 10 10 10 9 9 9 10 10 10 9 9 9 9 9 9 9 10 10 10 11 11 11 10 10 10 10 10 10 10 10
8 8 8 8 8 9 9 9 9 9 10 10 10 10 10 10 10 10 10 10 10 10 10 11 11 11 11 11 11 11 11 11 11 11 11 11 10 9 10 10 10 9 9 9 9 9 9 9 9 9 9 9 10 10 10 10 10 11 11 11 10 10 10 10 10 10 10 10 10
8 8 8 8 8 9 9 9 9 9 10 10 10 10 10 10 10 10 10 10 10 11 11 11 11 11 11 11 11 11 11 11 11 11 11 10 9 9 10 10 10 9 9 9 9 9 9 9 9 9 9 9 10 10 10 10 10 10 10 10 10 10 10 10 10 10 10 10 10
8 7 8 8 8 9 9 9 9 9 10 10 10 10 10 10 10 10 10 10 11 11 11 11 11 11 11 11 11 11 11 11 11 10 10 10 9 9 10 10 10 9 9 9 9 9 9 9 9 9 10 10 10 10 10 10 10 10 10 10 10 10 10 10 10 10 10 10 10
8 7 8 8 9 9 9 9 9 9 10 10 10 10 10 10 10 10 10 11 11 11 11 11 11 11 11 11 11 10 10 10 10 10 10 9 9 10 10 10 9 9 9 9 9 9 9 9 10 10 10 10 10 10 10 10 10 10 10 10 10 10 10 10 10 10 10 10 10
8 8 8 8 9 9 9 9 9 9 9 10 10 10 10 10 10 10 10 10 11 11 11 11 11 11 11 11 10 10 10 10 10 10 9 9 9 10 10 10 9 9 9 9 9 9 9 9 10 10 11 10 10 10 10 10 10 10 10 10 10 10 10 10 10 10 10 10 10
8 8 8 8 9 9 9 9 9 9 9 9 10 10 10 10 10 10 10 10 11 11 11 11 11 11 11 10 10 10 10 10 9 9 8 9 10 10 10 9 9 9 9 8 9 9 9 10 10 10 11 10 10 10 10 10 10 10 10 10 10 10 10 10 10 10 10 10 10
8 8 8 9 9 9 9 9 9 9 9 9 9 10 10 10 10 10 10 10 11 11 11 10 10 10 10 10 10 10 10 9 9 8 8 9 10 10 10 9 9 9 8 9 9 9 10 10 10 10 10 10 10 10 10 10 10 10 10 10 10 10 10 10 10 10 10 10 9
7 7 8 9 9 9 9 9 9 9 9 9 9 9 9 9 9 10 10 10 10 10 10 10 10 10 10 10 10 10 9 9 8 8 9 9 9 9 9 9 9 8 9 9 9 9 10 10 10 10 10 10 10 10 10 10 10 10 10 10 10 10 10 10 10 10 10 9 9
7 7 8 9 9 9 9 9 9 9 9 9 9 9 9 9 10 10 10 10 10 10 10 10 10 10 10 10 9 9 9 8 8 8 8 9 9 9 9 9 9 9 9 9 10 10 10 10 10 10 10 10 10 10 10 10 10 10 10 10 10 10 10 10 10 9 9 9 9
7 7 8 9 9 9 9 9 9 9 9 9 9 9 9 9 10 10 10 10 10 10 10 10 10 10 10 10 9 8 8 8 8 8 8 9 9 9 9 9 9 9 10 10 10 10 10 10 10 10 10 10 10 10 10 10 10 10 10 10 10 10 10 10 9 9 9 9 9
7 8 8 9 9 9 9 9 9 9 9 9 9 9 9 9 9 10 9 9 10 10 10 10 10 10 10 10 9 8 8 7 8 8 9 9 9 9 9 9 9 10 10 10 10 10 10 10 10 10 10 10 10 10 10 10 10 10 10 10 10 10 10 9 9 9 9 9 9
8 8 9 9 9 9 9 9 9 9 9 9 9 9 9 9 9 9 9 9 9 10 10 10 10 10 10 10 9 8 8 7 8 8 9 9 9 9 10 10 10 10 10 10 10 10 10 10 10 10 10 10 10 10 10 10 10 10 10 10 10 9 9 9 9 9 9 9 9
8 8 9 9 9 9 9 9 9 9 9 9 9 9 9 9 9 9 9 9 9 10 10 10 10 10 10 10 9 9 8 8 8 9 9 10 10 10 10 10 10 10 10 10 10 10 10 10 10 10 10 10 10 10 10 10 10 10 10 10 9 9 9 9 9 9 9 9 9
9 9 9 9 9 9 9 9 9 9 9 9 9 9 9 9 9 9 9 9 9 9 10 10 10 10 10 10 9 9 8 8 8 9 10 10 10 10 10 10 10 10 10 10 10 10 10 10 10 10 10 10 10 10 10 10 10 10 10 9 9 9 9 9 9 9 9 9 8
9 9 9 9 9 9 9 9 9 9 9 9 9 9 9 9 9 9 9 9 9 10 10 10 10 9 9 9 9 9 9 8 9 9 10 11 10 10 10 10 10 10 10 10 10 10 10 10 10 10 10 10 10 10 10 10 10 10 9 9 9 9 9 9 9 9 9 8 8
9 9 9 9 9 9 9 9 9 9 9 9 9 9 9 9 9 9 9 9 9 10 10 9 9 9 9 9 9 9 9 9 9 10 10 10 10 10 10 10 10 10 10 10 10 10 10 11 11 10 10 10 10 10 10 9 9 9 9 9 9 9 9 9 9 9 8 8 7
9 9 9 9 9 9 9 9 8 8 8 9 9 9 9 9 9 9 9 9 9 9 9 9 9 9 9 9 8 8 9 9 10 10 10 10 10 10 10 10 10 10 10 10 10 10 10 10 10 10 10 10 10 10 9 9 9 9 9 9 9 9 9 9 9 8 8 7 7
9 9 9 9 8 8 8 8 8 8 8 8 8 8 8 8 8 9 9 9 9 9 9 9 9 9 9 9 9 9 9 9 10 10 10 10 10 10 10 10 10 10 10 10 10 10 10 10 10 10 10 10 10 10 9 9 9 9 9 9 9 9 9 9 8 8 8 7 7
9 9 8 8 8 8 8 8 8 8 8 8 8 8 8 8 8 8 9 9 9 8 9 9 9 10 10 9 10 10 10 9 9 9 10 10 10 10 10 10 10 10 10 10 10 10 10 10 10 9 9 9 9 9 9 9 9 9 9 9 9 9 8 8 8 8 7 7 7
9 8 8 8 8 8 8 8 8 8 8 8 8 8 8 8 8 8 8 8 9 9 9 9 10 10 10 10 10 10 10 9 9 10 10 10 10 10 10 10 10 10 10 10 10 10 10 9 9 9 9 9 9 9 9 9 9 9 9 9 9 8 8 8 7 7 7 7 7
8 8 8 8 8 8 8 8 8 8 8 8 8 8 8 8 8 8 9 9 10 10 10 10 10 10 10 10 10 10 9 9 10 10 10 10 10 10 10 10 10 10 10 10 10 9 9 9 9 9 9 9 9 9 9 9 9 9 9 9 8 8 8 8 8 8 8 7 7
8 8 8 8 8 8 8 8 8 8 8 8 8 8 8 8 8 9 9 10 10 10 10 10 10 10 10 10 10 10 10 10 10 10 10 10 10 10 10 10 10 10 10 10 9 9 9 9 9 9 8 8 9 9 9 9 9 9 8 8 8 8 8 8 8 8 8 8 7
8 8 8 8 8 8 8 8 8 8 8 8 8 8 8 8 8 9 9 10 10 10 10 10 10 10 10 9 10 10 10 10 10 10 10 10 10 10 10 10 10 10 10 9 9 9 9 9 9 9 8 8 9 9 9 9 8 8 8 8 8 8 8 8 8 8 8 8 7
8 8 8 8 8 8 8 8 8 8 8 8 8 8 8 9 9 9 10 10 10 10 10 10 10 10 10 10 10 10 10 10 10 10 10 10 10 10 10 10 10 10 9 9 9 9 9 9 9 8 8 9 9 9 9 8 8 8 8 8 8 8 8 8 8 8 8 7 7
8 8 8 8 8 8 8 8 8 8 8 8 8 9 9 9 9 10 10 10 10 10 9 10 10 10 10 10 11 11 11 10 10 10 10 10 10 10 10 10 10 9 9 9 9 9 9 9 9 9 9 9 9 9 9 8 8 8 8 8 8 8 8 8 8 8 8 8 8
8 8 8 8 8 8 8 8 8 8 8 9 9 9 10 10 10 10 10 10 9 9 9 10 10 10 10 10 11 11 11 11 10 10 10 10 10 10 10 10 9 9 9 9 9 9 9 9 9 9 9 9 9 9 9 8 8 8 8 8 8 8 8 8 8 8 8 8 8
8 8 8 8 8 8 8 8 8 8 9 9 9 9 10 10 10 10 10 10 10 10 10 10 10 10 10 11 11 11 11 11 10 10 10 10 10 10 10 10 9 9 9 9 9 8 8 8 9 9 9 9 9 9 9 8 8 8 8 8 8 8 8 8 8 8 8 8 8
8 8 8 8 8 8 8 8 8 9 9 9 9 9 10 10 10 9 10 10 10 10 10 10 10 11 11 11 11 11 10 10 10 10 10 10 10 10 10 9 9 9 9 9 8 8 8 9 9 9 9 9 9 9 9 9 8 8 8 8 9 9 9 8 8 8 8 8 8
8 8 8 8 8 8 8 8 9 9 9 9 9 9 10 10 9 9 9 10 10 11 11 11 11 11 11 11 11 10 10 10 10 10 10 10 10 10 9 9 9 9 9 8 8 8 9 9 9 9 9 9 9 9 9 9 9 9 9 9 9 9 9 8 8 8 8 8 8
8 8 8 8 8 8 8 9 9 9 9 9 9 9 10 10 10 9 9 10 11 12 12 11 11 11 11 11 11 10 10 10 10 10 10 10 9 9 9 9 9 9 9 9 9 9 9 9 9 9 9 9 9 9 9 9 9 9 9 9 9 9 9 8 8 8 8 8 8
8 8 8 8 9 9 9 9 9 9 10 10 10 10 10 10 10 10 11 11 11 12 12 11 11 11 11 11 10 10 10 10 10 10 10 9 9 9 9 9 9 9 9 9 9 9 9 9 9 9 9 9 9 9 9 9 9 9 9 9 9 9 9 8 8 8 7 7 7
9 9 9 9 9 10 10 10 10 10 10 10 10 10 10 11 11 12 12 12 12 11 11 11 11 11 11 10 10 10 10 10 10 10 10 9 9 9 9 9 9 9 9 9 9 9 9 9 9 9 9 9 9 9 9 9 9 9 9 9 9 9 8 8 8 7 7 7 7
Height
1374 1375 1376 1377 1379 1380 1382 1385 1386 1388 1390 1391 1392 1393 1393 1392 1394 1398 1401 1403 1405 1407 1410 1412 1415 1417 1420 1424 1428 1431 1435 1438 1441 1443 1446 1448 1450 1453 1455 1457 1459 1461 1464 1466 1469 1471 1472 1474 1475 1476 1478 1480 1482 1484 1485 1487 1488 1490 1491 1492 1494 1495 1496 1497 1499 1500 1501 1502 1503
1373 1374 1375 1377 1378 1380 1382 1385 1387 1388 1390 1391 1392 1393 1392 1391 1394 1397 1400 1403 1405 1407 1410 1413 1415 1418 1420 1424 1428 1431 1435 1438 1440 1443 1445 1448 1450 1452 1455 1457 1459 1462 1465 1467 1469 1471 1472 1474 1475 1476 1478 1480 1482 1483 1485 1486 1488 1489 1491 1492 1493 1495 1496 1497 1498 1500 1500 1501 1502
1372 1374 1375 1377 1378 1380 1382 1384 1386 1388 1389 1391 1392 1391 1391 1391 1394 1397 1400 1403 1405 1408 1410 1413 1416 1418 1421 1424 1428 1431 1434 1437 1440 1443 1445 1448 1450 1452 1455 1457 1460 1463 1465 1467 1469 1470 1472 1473 1475 1476 1478 1480 1481 1483 1485 1486 1488 1489 1490 1492 1493 1494 1495 1496 1498 1499 1500 1500 1502
1372 1373 1375 1376 1378 1380 1382 1384 1385 1387 1389 1390 1390 1390 1390 1391 1395 1398 1401 1404 1406 1409 1411 1414 1416 1419 1421 1424 1427 1431 1435 1438 1440 1442 1445 1447 1450 1452 1455 1457 1460 1463 1465 1467 1469 1470 1472 1473 1475 1476 1478 1480 1481 1483 1484 1486 1487 1489 1490 1491 1493 1494 1495 1495 1496 1498 1499 1500 1502
1372 1373 1375 1376 1378 1380 1382 1384 1385 1387 1388 1388 1388 1388 1390 1393 1396 1399 1402 1405 1407 1410 1412 1414 1416 1419 1421 1424 1427 1431 1435 1438 1440 1442 1445 1447 1450 1452 1455 1458 1461 1463 1465 1467 1469 1470 1472 1473 1475 1477 1478 1480 1481 1483 1484 1485 1487 1488 1489 1491 1492 1493 1494 1495 1496 1497 1499 1500 1502
1372 1374 1375 1377 1379 1381 1383 1384 1385 1386 1387 1386 1386 1388 1391 1394 1397 1400 1403 1405 1408 1410 1413 1415 1417 1419 1421 1424 1428 1431 1435 1438 1440 1443 1445 1447 1450 1452 1455 1459 1461 1464 1465 1467 1469 1470 1472 1473 1475 1477 1479 1480 1481 1483 1484 1485 1486 1487 1489 1490 1491 1492 1493 1495 1496 1498 1499 1500 1502
1372 1374 1376 1378 1380 1381 1382 1384 1385 1386 1386 1385 1386 1389 1391 1394 1397 1400 1403 1406 1408 1411 1413 1415 1417 1418 1421 1424 1428 1431 1435 1438 1440 1443 1445 1447 1450 1453 1456 1460 1462 1464 1465 1467 1469 1470 1472 1474 1475 1477 1478 1480 1481 1482 1483 1484 1485 1486 1488 1490 1491 1492 1494 1495 1497 1498 1500 1500 1501
1373 1375 1376 1378 1380 1380 1382 1384 1385 1385 1385 1385 1387 1389 1392 1395 1398 1400 1403 1406 1409 1411 1413 1415 1417 1418 1421 1425 1428 1432 1435 1437 1440 1442 1445 1447 1450 1453 1457 1460 1462 1464 1466 1467 1469 1470 1472 1473 1475 1476 1477 1479 1480 1481 1482 1484 1485 1487 1488 1490 1491 1493 1495 1496 1497 1498 1500 1500 1501
1373 1375 1377 1378 1379 1381 1382 1384 1384 1384 1384 1385 1387 1390 1392 1395 1398 1401 1404 1407 1409 1411 1414 1415 1417 1420 1422 1426 1429 1432 1435 1437 1439 1442 1444 1447 1450 1454 1457 1460 1462 1464 1466 1468 1469 1470 1471 1473 1474 1475 1476 1477 1479 1480 1482 1484 1486 1487 1489 1490 1492 1493 1495 1496 1497 1498 1499 1500 1500
1374 1375 1377 1378 1379 1381 1383 1383 1384 1384 1384 1385 1388 1390 1393 1396 1399 1401 1404 1407 1410 1412 1415 1416 1419 1421 1424 1427 1430 1433 1435 1437 1439 1441 1444 1447 1450 1454 1458 1460 1462 1464 1466 1467 1469 1470 1471 1472 1473 1475 1476 1477 1479 1481 1483 1485 1486 1488 1490 1491 1492 1493 1495 1496 1497 1498 1499 1500 1500
1374 1375 1376 1378 1380 1382 1383 1382 1383 1384 1384 1386 1388 1391 1394 1397 1400 1403 1405 1408 1410 1413 1415 1418 1420 1422 1425 1428 1431 1433 1435 1437 1439 1441 1444 1447 1451 1455 1458 1460 1462 1464 1465 1466 1468 1469 1470 1471 1473 1474 1476 1478 1480 1482 1484 1485 1487 1489 1490 1491 1492 1493 1495 1495 1496 1497 1498 1499 1500
1375 1376 1377 1378 1381 1382 1382 1382 1383 1384 1385 1387 1390 1392 1395 1398 1401 1403 1406 1409 1411 1414 1417 1420 1421 1424 1426 1429 1432 1434 1436 1438 1440 1442 1445 1448 1452 1456 1459 1460 1462 1463 1465 1466 1467 1468 1470 1471 1472 1474 1476 1479 1481 1483 1484 1486 1487 1489 1490 1491 1492 1493 1494 1495 1496 1497 1498 1499 1500
1376 1377 1378 1379 1382 1383 1382 1382 1383 1385 1386 1388 1391 1394 1397 1400 1402 1405 1407 1410 1412 1415 1418 1421 1423 1425 1427 1430 1432 1434 1436 1438 1440 1443 1446 1449 1453 1456 1459 1460 1462 1463 1464 1465 1467 1468 1470 1471 1473 1475 1477 1479 1481 1483 1485 1486 1488 1489 1490 1491 1492 1493 1494 1495 1496 1497 1498 1499 1500
1377 1378 1379 1379 1383 1383 1381 1382 1384 1385 1387 1390 1392 1395 1398 1401 1404 1406 1408 1410 1413 1416 1419 1421 1424 1426 1428 1430 1433 1435 1437 1439 1441 1444 1447 1450 1454 1457 1459 1460 1461 1463 1464 1465 1467 1468 1470 1472 1474 1476 1478 1480 1482 1484 1485 1486 1488 1489 1490 1491 1492 1493 1494 1495 1496 1497 1498 1499 1500
1377 1378 1379 1381 1384 1383 1381 1383 1385 1387 1389 1391 1394 1397 1400 1403 1405 1407 1409 1411 1414 1417 1419 1422 1424 1427 1429 1431 1433 1435 1437 1439 1442 1445 1449 1452 1455 1457 1459 1460 1461 1463 1464 1466 1467 1469 1471 1473 1475 1477 1479 1481 1482 1484 1485 1487 1488 1489 1490 1491 1492 1493 1494 1495 1496 1497 1498 1499 1500
1377 1378 1380 1383 1384 1383 1382 1384 1386 1388 1390 1393 1396 1399 1401 1404 1406 1408 1410 1412 1415 1417 1420 1422 1425 1427 1430 1432 1434 1435 1438 1440 1443 1447 1450 1453 1455 1457 1458 1460 1461 1463 1464 1466 1468 1470 1472 1474 1476 1478 1480 1481 1483 1484 1485 1487 1488 1489 1490 1491 1492 1493 1494 1495 1496 1497 1498 1499 1500
1377 1378 1381 1385 1384 1383 1384 1385 1388 1390 1392 1395 1398 1400 1402 1405 1407 1409 1411 1413 1415 1417 1420 1422 1425 1427 1430 1432 1434 1436 1438 1441 1445 1448 1451 1453 1455 1456 1458 1460 1461 1463 1465 1467 1469 1471 1473 1475 1477 1479 1480 1482 1483 1484 1485 1486 1488 1489 1490 1491 1492 1493 1494 1495 1496 1497 1498 1499 1500
1378 1380 1383 1385 1384 1383 1385 1387 1389 1391 1394 1396 1399 1401 1403 1405 1408 1410 1412 1414 1415 1418 1420 1423 1425 1427 1430 1432 1434 1436 1439 1442 1445 1448 1451 1453 1454 1456 1457 1459 1461 1463 1465 1468 1470 1471 1473 1475 1477 1479 1480 1482 1483 1484 1485 1486 1487 1489 1490 1491 1492 1493 1494 1495 1496 1497 1498 1499 1500
1379 1382 1385 1385 1384 1385 1386 1388 1391 1393 1395 1398 1400 1402 1404 1406 1408 1410 1412 1415 1416 1418 1421 1423 1426 1428 1430 1431 1434 1436 1440 1443 1446 1449 1451 1453 1454 1456 1458 1459 1461 1464 1467 1469 1470 1472 1474 1475 1477 1479 1480 1481 1482 1484 1485 1486 1487 1489 1490 1491 1492 1493 1494 1495 1496 1497 1498 1499 1499
1381 1384 1385 1385 1385 1386 1388 1390 1392 1395 1397 1399 1401 1403 1405 1407 1409 1411 1413 1415 1418 1420 1421 1424 1426 1428 1430 1432 1434 1437 1440 1444 1446 1449 1451 1452 1454 1456 1457 1460 1462 1465 1468 1470 1471 1473 1474 1475 1477 1478 1480 1481 1482 1484 1485 1486 1488 1489 1490 1491 1492 1493 1494 1495 1496 1497 1497 1498 1499
1384 1385 1385 1385 1385 1387 1390 1392 1394 1396 1398 1400 1403 1405 1406 1408 1410 1412 1414 1416 1418 1420 1423 1425 1426 1428 1430 1432 1435 1438 1441 1445 1447 1449 1451 1452 1454 1455 1458 1461 1464 1466 1469 1470 1472 1473 1474 1475 1477 1478 1480 1481 1483 1484 1485 1487 1488 1489 1490 1491 1492 1493 1494 1495 1496 1496 1497 1498 1499
1385 1385 1385 1385 1387 1389 1391 1393 1395 1398 1400 1402 1404 1406 1408 1410 1411 1413 1415 1417 1419 1421 1423 1425 1427 1429 1431 1434 1436 1439 1442 1445 1448 1449 1450 1452 1454 1456 1460 1462 1465 1468 1469 1470 1472 1473 1474 1476 1477 1479 1480 1482 1484 1485 1486 1487 1488 1489 1490 1491 1492 1493 1494 1495 1496 1497 1498 1499 1499
1384 1385 1385 1387 1389 1391 1393 1395 1397 1399 1401 1403 1405 1407 1409 1411 1413 1415 1416 1419 1420 1422 1424 1426 1428 1430 1433 1435 1437 1440 1442 1445 1448 1449 1450 1452 1455 1458 1461 1464 1466 1468 1470 1470 1472 1473 1475 1476 1478 1480 1481 1483 1484 1485 1486 1487 1488 1489 1490 1491 1492 1493 1494 1495 1496 1497 1498 1499 1499
1384 1385 1387 1389 1391 1393 1394 1396 1398 1400 1402 1404 1406 1408 1410 1412 1414 1416 1418 1419 1421 1422 1424 1427 1429 1432 1434 1436 1438 1440 1443 1445 1447 1449 1451 1454 1456 1460 1462 1465 1467 1469 1470 1471 1472 1474 1475 1477 1479 1480 1482 1483 1484 1485 1486 1487 1488 1489 1490 1491 1492 1493 1494 1495 1496 1497 1498 1498 1499
1385 1387 1389 1390 1392 1394 1396 1397 1399 1401 1403 1405 1407 1409 1411 1413 1415 1417 1418 1420 1421 1423 1426 1429 1431 1433 1435 1437 1440 1441 1443 1445 1447 1449 1452 1455 1458 1460 1463 1465 1467 1469 1470 1472 1474 1475 1477 1478 1480 1480 1482 1483 1484 1485 1486 1487 1488 1489 1490 1491 1492 1493 1494 1495 1496 1497 1498 1498 1499
1387 1388 1390 1392 1393 1395 1397 1399 1401 1403 1405 1407 1409 1410 1412 1414 1416 1418 1419 1421 1423 1425 1428 1430 1432 1434 1436 1438 1440 1442 1444 1446 1448 1450 1453 1455 1459 1461 1464 1466 1468 1470 1471 1473 1475 1476 1478 1479 1480 1481 1482 1483 1485 1485 1486 1487 1489 1490 1490 1492 1493 1494 1495 1495 1496 1497 1497 1498 1499
1389 1390 1392 1394 1395 1397 1399 1400 1402 1405 1406 1408 1410 1412 1414 1415 1417 1419 1420 1423 1425 1428 1430 1432 1434 1435 1437 1439 1441 1443 1445 1448 1450 1452 1455 1457 1459 1462 1465 1467 1469 1470 1472 1474 1475 1477 1479 1480 1481 1482 1483 1484 1485 1486 1487 1488 1489 1490 1491 1492 1493 1494 1495 1495 1496 1497 1497 1498 1499
1390 1392 1394 1395 1397 1399 1401 1403 1405 1406 1408 1410 1411 1413 1415 1417 1419 1421 1423 1425 1427 1429 1431 1433 1435 1436 1438 1440 1442 1445 1447 1450 1451 1454 1456 1458 1461 1463 1465 1468 1469 1471 1473 1474 1476 1477 1479 1480 1481 1483 1484 1485 1485 1486 1487 1488 1489 1490 1491 1492 1493 1494 1495 1496 1496 1497 1497 1498 1499
1393 1394 1396 1398 1399 1401 1403 1405 1406 1408 1410 1411 1413 1414 1416 1419 1420 1422 1424 1426 1428 1430 1432 1434 1436 1438 1440 1442 1444 1447 1449 1451 1453 1455 1457 1460 1462 1465 1467 1468 1470 1471 1473 1475 1476 1478 1479 1481 1482 1483 1484 1485 1486 1487 1487 1488 1489 1490 1491 1492 1493 1494 1495 1495 1496 1497 1497 1498 1498
1395 1397 1398 1400 1401 1403 1405 1406 1408 1410 1411 1413 1414 1416 1418 1420 1422 1424 1426 1428 1430 1431 1433 1435 1437 1439 1441 1443 1445 1448 1450 1452 1454 1457 1459 1461 1464 1465 1467 1469 1470 1472 1474 1475 1477 1479 1480 1481 1482 1483 1484 1485 1486 1487 1488 1489 1490 1490 1491 1492 1493 1494 1495 1495 1496 1496 1497 1497 1498
1397 1399 1400 1402 1404 1405 1407 1408 1410 1411 1413 1414 1416 1418 1420 1422 1424 1425 1427 1429 1431 1433 1434 1436 1438 1440 1442 1444 1446 1448 1450 1453 1455 1458 1460 1462 1464 1466 1468 1469 1471 1473 1475 1476 1478 1479 1480 1481 1483 1484 1485 1485 1486 1487 1488 1489 1490 1490 1491 1492 1493 1494 1495 1495 1496 1496 1497 1497 1497
1399 1400 1402 1404 1405 1407 1409 1410 1412 1413 1415 1416 1418 1419 1421 1423 1425 1426 1428 1430 1432 1434 1435 1437 1439 1441 1443 1445 1447 1449 1452 1454 1457 1459 1461 1463 1465 1466 1468 1470 1472 1474 1475 1477 1478 1480 1481 1482 1483 1484 1485 1485 1486 1487 1488 1489 1490 1491 1492 1493 1493 1494 1495 1495 1496 1496 1496 1497 1497
1401 1403 1404 1405 1407 1409 1410 1412 1414 1415 1416 1418 1419 1421 1422 1424 1426 1428 1430 1432 1434 1435 1437 1439 1441 1442 1444 1446 1448 1451 1453 1455 1458 1460 1462 1464 1465 1467 1469 1470 1472 1474 1476 1477 1479 1480 1481 1482 1483 1484 1485 1486 1486 1487 1488 1489 1490 1491 1492 1493 1493 1494 1495 1495 1495 1496 1496 1496 1496
1403 1404 1405 1407 1409 1410 1412 1414 1415 1417 1418 1420 1421 1422 1424 1425 1427 1429 1431 1433 1435 1437 1439 1441 1442 1444 1446 1448 1450 1452 1454 1457 1459 1461 1463 1465 1466 1468 1470 1471 1473 1475 1476 1478 1479 1480 1481 1482 1483 1484 1485 1486 1486 1487 1488 1489 1490 1491 1492 1492 1493 1494 1494 1495 1495 1495 1495 1496 1496
1405 1406 1407 1409 1410 1412 1413 1415 1416 1418 1419 1420 1422 1424 1425 1427 1429 1431 1433 1435 1437 1439 1441 1443 1444 1446 1448 1450 1451 1454 1456 1458 1460 1462 1464 1465 1467 1469 1470 1472 1474 1475 1477 1478 1480 1481 1482 1482 1483 1484 1485 1486 1487 1488 1488 1489 1490 1491 1492 1492 1493 1493 1494 1494 1495 1495 1495 1496 1496
1406 1407 1409 1410 1412 1413 1415 1416 1418 1419 1420 1422 1423 1425 1427 1429 1431 1433 1435 1437 1439 1440 1442 1444 1445 1447 1449 1451 1453 1455 1457 1459 1460 1462 1465 1466 1468 1470 1471 1473 1474 1476 1477 1479 1480 1481 1482 1483 1484 1485 1485 1486 1487 1488 1489 1490 1490 1491 1491 1492 1492 1493 1493 1494 1494 1495 1495 1495 1496
1408 1409 1410 1412 1413 1415 1416 1417 1419 1420 1422 1423 1425 1427 1429 1431 1433 1435 1437 1439 1440 1442 1443 1445 1447 1449 1450 1452 1454 1456 1458 1460 1462 1463 1465 1467 1469 1471 1472 1474 1475 1476 1477 1479 1480 1481 1482 1483 1484 1485 1485 1486 1487 1488 1489 1490 1490 1490 1491 1491 1492 1492 1493 1493 1494 1494 1495 1495 1495
1410 1411 1412 1413 1415 1416 1418 1419 1420 1422 1424 1425 1427 1429 1430 1433 1435 1437 1439 1440 1441 1443 1444 1446 1448 1450 1452 1454 1455 1457 1459 1461 1463 1465 1466 1468 1470 1472 1473 1474 1475 1476 1478 1479 1480 1481 1482 1483 1484 1485 1486 1487 1487 1488 1489 1489 1490 1490 1491 1491 1492 1492 1493 1493 1493 1494 1494 1495 1495
1412 1413 1414 1415 1417 1418 1420 1421 1423 1425 1426 1428 1429 1431 1433 1435 1437 1439 1440 1442 1443 1445 1446 1448 1450 1451 1453 1455 1456 1458 1460 1463 1465 1466 1468 1470 1471 1473 1474 1475 1476 1477 1478 1479 1480 1481 1482 1483 1484 1485 1486 1487 1487 1488 1489 1489 1490 1490 1490 1491 1491 1492 1492 1493 1493 1494 1494 1495 1495
1415 1416 1417 1418 1419 1420 1422 1424 1425 1427 1429 1430 1432 1434 1435 1437 1438 1440 1442 1444 1445 1446 1448 1449 1451 1452 1454 1456 1458 1460 1461 1464 1465 1467 1469 1470 1472 1474 1475 1475 1476 1477 1478 1480 1480 1482 1483 1484 1485 1485 1486 1487 1487 1488 1489 1489 1490 1490 1490 1491 1491 1492 1492 1492 1493 1494 1494 1495 1495
1418 1419 1420 1421 1422 1423 1425 1426 1428 1430 1432 1433 1435 1436 1437 1439 1440 1443 1445 1446 1447 1448 1449 1450 1452 1454 1455 1457 1459 1461 1463 1465 1466 1468 1470 1471 1473 1474 1475 1476 1477 1478 1479 1480 1481 1482 1483 1484 1485 1485 1486 1487 1487 1488 1488 1489 1490 1490 1490 1491 1491 1492 1492 1493 1493 1493 1494 1494 1494
Wind_Speed
30 31 31 33 36 41 45 44 39 36 36 34 31 35 43 51 54 54 53 53 53 52 51 51 51 50 49 47 46 45 45 44 43 42 41 39 37 35 33 32 30 29 28 28 27 27 27 27 27 27 26 25 25 25 25 24 24 23 22 20 19 18 18 18 20 22 24 23 22
30 31 32 34 37 42 45 43 36 34 33 32 31 36 44 52 54 54 52 52 52 52 51 50 50 50 48 47 46 45 44 44 43 42 41 40 37 35 33 31 30 29 28 28 27 27 28 27 27 26 26 25 25 25 25 24 23 22 21 20 18 17 17 18 20 22 25 25 22
30 31 32 34 38 43 45 41 33 29 30 31 32 39 47 53 54 53 52 51 52 52 51 50 50 49 48 47 45 44 44 43 43 42 41 40 37 35 33 31 30 29 28 28 27 27 27 27 26 26 25 25 25 26 25 24 23 22 21 20 18 17 17 18 20 22 25 25 23
30 31 33 35 38 43 44 37 29 25 27 32 37 43 49 52 53 52 51 51 51 51 51 50 50 49 48 47 45 44 43 42 42 41 41 39 37 34 32 31 30 29 28 28 28 27 26 26 25 25 25 25 26 26 25 24 22 21 20 19 18 17 18 19 20 22 24 24 23
29 31 33 34 38 41 40 30 25 24 28 36 43 47 49 51 51 51 51 50 50 50 50 50 50 49 47 46 45 43 42 41 40 40 40 39 36 33 31 30 29 29 28 28 28 27 26 25 24 25 25 25 25 25 24 23 23 22 21 19 19 19 20 21 21 21 22 22 22
28 30 32 34 37 37 32 24 23 25 31 41 47 49 50 50 51 51 50 49 49 50 50 50 49 49 47 46 44 43 41 40 39 39 38 37 34 32 30 29 29 29 28 28 27 26 25 25 25 25 25 25 25 25 24 24 24 23 22 21 21 21 21 20 20 19 19 20 20
27 30 32 34 34 30 24 21 24 29 36 45 48 50 51 51 51 51 51 50 50 50 50 50 49 48 47 46 44 43 41 40 38 37 36 34 32 30 29 29 29 29 28 28 27 26 25 25 26 26 26 26 26 26 26 25 25 24 22 22 21 21 20 19 18 17 17 18 19
28 30 32 32 28 22 19 22 27 33 40 47 49 51 52 52 52 52 52 51 50 50 50 50 49 48 46 45 44 42 41 39 38 36 35 33 30 29 29 29 29 29 28 27 27 26 26 26 27 28 28 28 28 27 26 25 24 23 22 21 21 20 19 17 17 16 17 17 18
28 31 32 28 20 17 19 25 31 38 44 49 50 51 53 53 53 53 52 51 50 50 50 49 48 46 45 44 43 42 40 38 37 36 34 32 30 30 30 30 30 29 28 27 27 27 28 28 29 29 29 29 29 27 26 24 22 21 20 20 20 20 18 17 16 16 17 17 17
28 30 30 25 15 15 22 30 35 41 46 49 51 52 53 53 53 52 51 51 50 50 49 47 46 44 43 42 41 41 39 38 36 35 33 31 30 30 31 31 30 30 29 28 28 29 29 30 31 30 30 29 28 26 24 22 20 20 20 20 20 19 19 18 17 17 17 17 17
27 29 29 24 14 18 28 34 38 42 46 48 50 51 52 52 51 51 51 50 49 48 47 46 44 43 41 41 40 40 38 36 35 34 32 30 30 30 31 30 30 30 30 30 30 30 31 31 31 31 29 27 25 24 22 20 19 19 20 20 20 19 19 18 18 17 17 17 16
25 29 29 23 15 21 33 38 40 42 45 47 49 50 50 50 50 50 50 49 49 48 46 45 43 42 41 40 40 39 37 35 33 31 30 29 29 30 29 29 29 30 31 31 31 32 32 32 31 29 28 25 23 21 20 20 20 20 20 20 20 19 19 18 18 17 16 16 15
24 29 29 22 17 25 37 40 41 43 44 46 47 48 49 49 49 49 49 49 49 47 46 45 44 42 41 40 39 38 36 34 31 29 28 28 29 29 29 29 30 31 32 32 32 32 31 30 29 27 25 23 21 20 20 21 21 21 21 21 20 19 18 18 17 16 15 14 14
26 31 29 18 18 29 40 41 42 43 44 45 46 47 47 48 48 48 49 49 48 48 46 45 45 43 41 39 39 37 35 32 28 27 26 28 28 28 28 29 31 32 33 32 32 31 30 28 26 24 22 21 21 21 21 21 21 21 21 20 19 19 18 17 16 15 14 13 12
29 33 27 15 22 33 41 41 42 42 43 44 45 46 46 47 47 47 48 48 48 48 47 46 44 42 40 39 37 35 32 29 27 26 27 28 29 29 29 31 32 33 33 32 31 29 27 25 23 21 20 20 21 22 22 22 22 21 20 19 19 18 17 16 15 14 13 12 11
33 33 23 15 26 37 41 41 41 42 43 44 44 45 46 46 47 47 47 48 48 47 46 45 43 41 39 37 35 32 30 28 27 28 29 30 30 30 31 32 33 34 33 31 29 27 24 22 20 19 20 21 22 23 23 23 22 21 20 19 18 16 15 14 14 13 12 11 10
37 31 19 17 31 40 40 40 40 41 42 43 44 45 46 46 46 46 47 47 47 46 45 44 43 41 39 36 33 31 30 29 29 29 30 31 32 32 33 33 34 33 31 29 27 24 22 21 20 20 21 22 23 24 24 23 22 21 20 18 17 16 15 14 13 12 11 10 9
38 29 18 22 35 40 39 39 39 40 41 42 44 45 45 46 46 46 46 46 45 45 44 43 42 40 37 35 33 32 31 31 31 31 32 33 33 33 34 33 32 30 28 26 24 23 21 21 21 21 23 24 24 24 24 23 21 20 19 17 16 15 14 13 12 11 10 10 9
36 27 20 29 38 39 38 38 38 39 41 42 44 44 45 45 45 45 45 44 44 44 43 42 40 38 36 34 34 33 32 31 32 33 34 34 34 34 33 32 30 28 25 24 22 22 21 22 22 24 25 25 25 25 23 22 20 18 17 16 15 14 13 12 12 11 10 10 10
30 24 24 35 38 38 36 37 38 39 40 42 43 44 44 45 45 44 44 43 43 42 41 39 38 36 35 34 34 34 33 32 32 34 35 34 34 33 32 30 28 25 24 22 22 22 22 23 24 25 26 26 25 24 22 20 18 17 16 15 14 13 13 12 11 11 10 10 10
24 25 31 38 38 36 36 36 37 38 40 41 42 43 44 44 44 43 43 42 41 40 38 37 35 34 34 34 34 35 34 32 33 33 33 32 32 30 29 27 25 24 23 22 22 22 23 24 25 26 26 25 23 22 20 18 17 16 15 14 14 13 13 12 11 11 10 10 9
27 31 36 37 36 35 35 35 36 37 38 39 41 42 42 43 42 42 41 40 39 38 37 35 34 34 34 34 35 35 34 33 32 31 30 29 28 27 25 24 24 23 23 23 23 24 24 25 25 25 24 23 21 20 18 17 16 16 15 14 14 13 12 12 11 10 9 9 8
34 37 37 36 35 34 35 35 36 37 38 39 40 41 41 41 40 40 39 39 38 37 36 35 34 34 34 34 34 34 33 32 31 29 27 26 26 25 24 23 23 23 23 23 24 24 25 25 24 23 22 21 20 18 17 16 16 15 15 14 14 13 12 11 10 10 9 8 7
39 39 37 36 35 35 35 36 37 38 39 39 40 40 40 39 39 38 38 38 37 36 35 35 35 35 34 34 33 32 31 30 29 27 26 26 25 25 24 24 24 24 24 24 23 24 24 24 23 22 21 20 19 18 17 16 15 15 14 14 13 12 11 10 10 9 8 8 7
39 38 37 36 36 36 37 37 38 39 40 40 40 40 39 39 39 38 38 37 37 36 35 35 35 34 33 32 31 29 28 27 26 26 26 26 26 26 26 25 24 24 23 23 22 22 22 21 21 21 20 19 18 17 17 16 15 14 13 12 11 11 10 10 9 9 8 8 7
38 37 37 37 37 38 39 39 40 41 41 41 41 41 40 40 40 39 39 38 37 36 36 35 34 33 31 29 28 26 24 23 24 25 27 27 27 27 26 26 25 24 23 23 22 21 21 20 19 19 19 18 18 17 17 16 15 14 12 11 10 9 9 9 9 9 8 7 7
37 37 37 38 38 39 40 41 41 42 42 42 42 42 42 42 42 41 40 39 38 37 35 34 32 29 27 25 24 23 22 22 24 26 27 28 28 27 27 26 25 24 23 23 22 21 20 19 18 18 17 17 17 17 16 15 14 13 11 10 9 9 8 8 8 8 7 7 6
37 38 38 39 40 41 42 42 43 43 44 44 44 44 44 43 42 42 41 40 38 36 33 31 28 25 23 22 21 21 21 24 26 27 27 27 27 27 26 26 25 25 24 23 22 21 20 19 18 17 17 16 16 15 14 13 12 11 10 10 9 9 9 9 8 7 7 6 6
38 39 40 41 42 43 44 44 45 45 45 45 44 44 44 43 42 41 40 38 36 34 31 29 26 24 22 22 21 22 23 26 27 27 27 27 27 26 26 26 25 25 24 23 22 21 20 19 18 17 16 15 14 13 12 11 10 10 10 9 9 9 10 9 9 8 7 7 7
39 40 41 43 44 45 45 45 45 45 45 44 44 43 43 42 41 40 38 35 33 31 29 28 26 25 24 23 24 25 26 27 27 27 27 27 27 27 26 26 25 25 24 23 22 21 20 19 18 17 16 14 13 12 11 10 9 9 9 10 10 10 10 9 9 8 7 7 6
40 41 42 44 44 45 45 45 45 45 44 44 43 42 41 40 39 37 35 33 31 30 28 27 27 26 26 26 26 27 27 26 26 26 26 27 27 27 26 26 25 25 24 23 22 21 20 19 18 17 15 14 12 11 10 10 9 9 9 9 9 8 8 7 7 6 6 5 5
41 42 43 44 44 44 44 44 44 44 43 43 42 41 40 39 37 35 33 31 30 29 28 27 27 27 27 27 27 26 26 26 25 26 26 26 27 27 26 26 25 24 24 23 21 20 19 18 17 16 15 14 12 11 10 10 9 9 8 8 7 6 5 4 4 4 4 5 5
42 43 43 43 43 43 43 43 43 43 42 42 41 40 39 37 35 33 31 30 29 28 28 28 28 28 28 27 26 25 25 25 25 26 26 26 26 26 26 26 25 24 23 22 21 20 19 18 17 16 15 13 12 11 10 10 10 9 9 8 6 5 5 4 4 4 5 5 5
42 43 43 43 43 43 43 42 42 42 42 41 40 38 36 34 33 32 31 29 28 28 28 27 27 26 25 24 24 23 23 24 25 25 26 26 26 26 26 26 25 24 22 21 20 19 18 18 16 15 14 13 12 11 10 9 9 9 8 7 7 6 6 5 5 5 6 6 6
42 42 42 42 42 42 42 41 41 41 40 39 38 36 33 32 31 30 30 29 28 28 27 26 25 24 22 21 21 21 22 24 25 26 26 26 26 26 25 25 24 23 22 21 20 19 18 17 16 14 13 12 11 10 9 8 8 7 7 7 7 7 6 6 6 6 6 6 7
41 41 41 41 41 41 40 40 39 39 38 37 36 34 32 31 29 29 28 27 27 26 25 24 23 21 20 20 20 20 22 24 25 26 26 25 25 25 25 24 24 23 22 21 20 19 17 16 15 13 12 11 9 8 8 7 6 6 6 6 6 6 6 6 7 8 8 8 8
39 39 40 39 39 39 38 38 37 36 36 35 34 33 32 30 29 27 26 25 24 24 22 21 20 19 19 20 21 21 23 24 25 26 25 25 24 24 24 24 23 23 22 21 19 18 17 15 14 12 10 9 8 7 7 6 6 5 5 6 6 6 6 7 8 9 9 9 9
37 37 37 37 36 36 35 35 35 34 34 34 33 32 30 29 28 26 25 23 21 20 19 18 18 18 19 20 22 23 23 24 24 25 25 24 23 23 23 23 23 22 21 20 19 17 16 14 12 11 9 8 7 7 6 6 6 5 5 5 6 7 8 8 9 10 10 10 10
35 35 35 35 34 34 33 33 32 32 31 31 30 29 28 27 26 24 22 20 18 17 17 18 18 19 20 22 23 24 24 24 24 24 23 23 22 22 22 22 22 22 21 19 18 16 15 13 11 10 9 8 8 7 7 6 6 6 6 6 7 8 8 9 9 10 10 10 10
32 32 32 32 32 32 31 31 30 29 28 27 27 26 25 24 23 21 18 17 16 16 17 18 20 21 22 23 24 25 25 24 23 23 22 22 22 21 21 21 21 20 19 18 17 15 14 12 10 9 9 9 9 8 7 7 6 6 6 7 7 8 9 9 9 9 9 10 10
28 28 27 27 27 27 27 26 26 26 25 25 25 24 24 22 20 18 17 16 16 17 18 20 22 23 24 24 24 24 24 24 23 22 21 21 21 21 20 20 19 18 18 17 16 14 13 11 10 10 9 9 8 8 7 7 6 6 6 7 7 7 8 8 8 8 8 9 9
Wind_Direction
185 188 190 190 188 184 180 177 178 180 181 178 173 167 165 166 169 171 172 172 172 172 173 175 177 179 180 182 183 184 185 186 187 190 193 195 194 193 192 193 194 194 194 194 195 194 194 193 193 193 192 192 192 193 193 195 195 196 196 196 196 197 196 194 189 184 182 181 183
186 189 190 190 188 183 180 179 180 181 180 179 174 168 166 168 170 171 172 172 173 173 173 174 176 179 180 182 183 184 185 187 189 191 194 196 194 193 192 193 193 193 193 193 193 192 191 191 191 191 190 190 191 191 192 193 194 195 196 196 195 194 193 191 189 187 186 186 186
187 189 191 190 188 184 181 181 182 182 181 179 174 169 167 168 170 172 172 172 173 173 173 173 176 178 180 181 183 184 185 187 189 192 194 194 193 191 191 192 191 191 192 193 192 191 190 190 190 190 189 189 189 190 190 190 192 193 195 195 193 189 187 187 189 190 190 190 189
188 190 190 190 187 184 182 183 184 183 180 176 171 168 168 170 172 173 173 172 172 173 173 174 175 177 179 181 182 183 185 186 189 191 193 193 191 189 189 189 189 189 190 191 190 189 189 189 189 189 188 188 189 188 188 187 189 191 193 192 188 184 183 185 188 190 192 192 192
188 190 189 188 185 183 183 186 187 183 176 172 169 168 170 172 173 173 173 172 172 173 174 175 174 176 178 181 182 182 183 184 186 188 189 190 189 187 186 187 187 188 188 189 188 187 187 187 187 187 187 187 187 186 185 185 186 188 189 187 184 181 182 184 186 188 190 192 193
187 188 187 184 181 181 183 188 187 179 171 167 168 170 173 174 174 174 173 172 172 173 174 174 174 175 178 180 181 181 181 182 183 184 184 184 183 182 183 184 185 186 186 186 185 185 185 185 184 184 184 184 183 182 183 184 186 187 187 184 181 181 182 183 185 186 188 190 193
185 186 184 180 178 180 184 186 180 172 166 165 167 171 174 174 174 174 174 174 173 173 173 174 175 176 178 179 180 180 180 181 181 181 180 178 178 178 179 182 184 184 183 182 182 183 183 183 182 182 181 181 180 181 184 186 188 188 186 182 180 180 181 182 183 184 186 189 192
184 183 180 177 177 181 184 178 170 164 162 163 167 171 174 174 174 174 175 174 173 173 174 175 176 178 179 180 180 181 182 181 180 179 177 175 174 175 178 180 180 180 179 180 180 180 181 181 181 181 180 181 181 183 185 188 190 189 185 181 178 178 179 180 182 184 185 188 191
183 181 179 175 176 180 178 169 163 160 160 163 167 171 173 174 174 174 174 174 174 174 175 176 178 180 181 181 182 183 184 183 181 178 176 173 171 172 175 177 177 176 176 177 178 179 180 181 181 182 182 183 184 185 187 188 188 186 182 179 176 176 177 179 182 184 186 188 191
183 182 179 176 172 170 167 162 160 159 160 163 167 170 172 173 174 174 175 175 175 175 176 178 179 180 181 182 184 185 186 184 181 178 174 170 168 170 173 174 174 173 174 176 178 180 181 182 182 183 184 185 186 186 186 186 184 181 177 176 175 175 177 179 182 184 186 189 192
186 184 181 177 163 157 160 159 159 159 161 163 167 170 171 172 173 174 175 176 176 176 177 179 180 180 181 182 184 185 184 181 178 175 170 166 164 167 170 171 172 173 174 177 180 182 183 184 184 184 184 185 186 186 184 181 178 175 174 174 175 177 178 180 183 185 188 190 193
188 186 182 176 156 151 157 159 160 160 161 164 167 169 171 172 173 174 175 176 176 177 179 181 182 182 181 181 183 182 180 177 174 169 163 159 160 164 169 170 172 174 177 180 182 183 185 185 185 184 184 184 184 182 179 174 172 172 172 174 176 178 180 181 183 186 188 191 194
188 186 182 174 152 150 156 159 160 161 163 165 168 169 171 172 174 175 175 176 177 177 178 181 183 184 183 180 179 177 175 173 168 162 155 154 159 164 168 171 174 177 180 182 183 185 185 186 186 185 184 182 180 177 173 170 170 172 174 175 177 179 181 182 184 186 189 193 197
185 184 180 167 149 151 156 158 160 161 164 166 168 170 171 172 174 175 175 176 177 177 178 180 183 184 182 178 175 173 170 167 161 154 151 154 161 166 170 173 177 180 182 183 184 185 186 186 186 185 182 178 175 171 169 169 171 174 176 178 179 180 182 183 185 188 191 194 199
184 181 176 157 147 152 156 159 160 162 164 166 168 170 171 171 172 173 174 176 177 179 180 179 179 178 178 176 173 169 165 160 153 150 152 158 164 169 173 177 180 182 183 183 184 185 186 185 184 182 179 175 171 168 168 170 172 175 178 180 181 182 183 185 187 190 194 198 203
183 180 174 152 148 153 157 159 160 162 164 165 168 170 170 170 170 171 173 174 176 178 178 176 174 172 170 170 167 163 157 151 149 151 156 161 167 172 176 179 182 183 184 183 183 183 182 181 180 177 175 171 169 169 170 172 175 177 179 180 182 183 184 187 190 193 197 201 205
183 181 174 152 151 155 158 160 160 162 163 165 168 169 168 168 168 170 172 173 174 174 173 172 170 167 164 162 159 154 149 147 150 155 160 166 170 174 178 180 182 184 184 183 181 179 177 176 174 172 171 170 170 171 174 176 178 179 180 181 182 184 187 190 193 196 199 202 204
185 183 171 151 153 157 160 161 161 162 164 165 166 166 166 166 167 168 171 172 172 170 168 167 166 164 161 156 151 148 146 148 153 159 165 170 173 176 179 181 182 183 183 181 178 175 172 170 169 169 170 171 173 175 177 179 180 180 181 182 183 186 188 191 194 196 198 200 201
191 186 166 151 155 159 162 162 162 163 164 165 165 164 165 165 166 167 168 169 170 169 167 165 163 162 159 154 149 146 147 151 157 163 168 171 174 176 179 181 181 181 180 177 174 171 169 168 168 169 171 174 177 179 181 181 181 181 181 183 185 187 189 191 192 193 195 198 201
194 182 160 152 157 162 163 163 163 163 164 164 164 163 163 165 166 167 166 166 167 167 167 165 163 161 158 155 150 147 149 155 162 167 170 172 174 176 179 180 179 178 175 173 170 169 168 168 169 172 174 177 180 181 181 182 181 181 182 183 185 186 187 188 189 191 194 198 203
183 166 154 155 160 163 163 163 164 164 163 163 163 163 163 164 165 165 164 163 164 165 165 165 164 162 159 157 153 152 154 159 165 169 170 172 174 176 178 178 176 174 172 170 169 169 169 170 172 174 177 179 181 181 181 181 181 182 182 183 184 184 184 185 188 191 196 200 204
161 154 153 158 162 163 163 164 164 164 164 163 163 162 163 163 163 163 162 161 161 161 162 162 163 162 160 158 157 157 159 163 167 170 171 173 175 176 176 175 173 171 170 169 170 170 171 172 174 175 177 179 180 181 181 181 181 181 181 181 181 181 182 184 188 193 197 199 202
150 151 155 160 162 163 163 163 164 164 164 163 163 163 162 162 162 162 161 159 158 158 158 159 160 160 159 159 159 160 161 164 167 170 172 175 176 175 173 172 171 171 170 170 171 172 172 172 173 175 176 177 178 179 180 180 180 180 180 179 179 180 182 185 189 193 195 197 200
148 152 156 159 160 160 161 162 163 162 162 162 162 162 162 162 162 161 159 157 156 156 157 158 159 159 159 159 160 160 160 161 164 167 172 176 175 172 171 171 171 171 170 171 171 172 172 172 172 173 175 176 177 177 177 177 177 178 178 178 178 180 183 187 189 192 194 196 201
149 152 154 155 156 158 159 160 160 159 159 160 160 160 160 160 160 159 157 155 155 156 158 159 159 159 159 159 158 157 156 156 159 164 170 174 173 171 170 170 170 169 169 169 170 170 171 172 173 174 174 175 175 175 174 174 174 175 175 176 178 181 184 187 190 192 195 198 202
149 151 151 152 153 154 156 156 156 156 156 156 157 156 155 155 155 155 154 154 155 156 158 158 158 157 157 157 155 153 152 154 160 167 171 172 171 170 169 168 167 166 166 166 167 168 170 172 174 175 175 175 174 173 172 171 172 172 173 175 178 181 185 188 190 193 197 201 203
148 148 148 149 149 149 151 153 152 152 152 152 152 151 150 151 151 152 152 152 153 154 155 155 155 155 154 153 151 150 153 160 167 171 172 171 169 168 166 165 164 164 164 164 165 167 169 171 173 174 174 174 174 173 172 170 170 170 171 173 175 179 182 184 187 192 197 203 206
146 146 145 145 144 146 148 149 148 149 149 149 149 148 148 149 149 150 151 152 152 152 152 153 153 154 152 150 150 153 160 168 172 173 173 170 167 165 163 162 162 162 163 164 165 167 169 170 171 172 173 173 173 172 172 171 170 170 170 172 173 176 179 181 183 188 196 205 213
143 143 142 142 142 144 145 146 146 146 147 147 148 148 149 149 150 150 151 151 151 152 152 154 155 155 153 152 155 162 169 172 174 173 171 168 164 162 162 162 162 163 164 165 166 167 168 169 169 170 171 172 172 172 171 171 171 170 171 173 176 180 183 184 184 189 199 211 221
141 141 141 141 142 142 143 144 145 145 146 147 148 149 150 150 150 150 150 151 152 154 156 157 157 156 156 158 163 168 171 173 173 171 168 165 162 162 162 163 163 164 165 166 167 167 168 168 168 168 170 171 172 172 171 171 172 174 176 180 184 188 192 193 192 199 211 223 233
140 140 141 141 141 142 142 143 144 145 146 147 148 149 150 150 150 150 150 152 154 156 157 157 157 157 158 162 166 168 170 171 170 168 166 163 162 162 163 164 165 165 166 167 167 168 168 168 168 168 169 170 172 172 172 171 173 179 186 192 195 197 200 201 204 213 228 242 253
140 141 141 141 140 141 142 143 144 145 146 147 148 149 149 149 149 149 150 152 153 154 155 156 157 158 160 163 165 167 168 168 167 165 164 163 163 164 165 165 166 167 167 168 168 168 168 168 168 168 169 170 172 173 173 173 174 181 191 201 202 199 198 201 213 232 250 263 270
140 140 140 140 140 141 142 143 144 145 146 147 148 148 148 148 148 148 149 151 152 153 155 156 158 159 161 163 164 165 165 165 163 162 162 164 165 165 166 167 167 168 168 168 168 169 169 169 169 170 170 171 173 174 176 178 180 185 192 198 195 189 189 201 219 240 258 268 272
140 140 140 140 140 141 142 143 144 145 146 147 147 147 147 147 147 147 148 150 151 153 155 157 158 159 160 162 162 162 162 161 160 161 162 164 166 167 167 168 168 168 168 168 168 169 169 170 170 171 172 172 175 178 182 186 189 193 194 193 186 185 192 207 225 244 258 267 269
140 140 140 140 140 141 142 143 144 145 145 145 146 146 146 147 147 147 148 150 152 153 155 156 157 157 157 158 158 158 158 158 159 160 162 165 167 168 169 169 168 168 167 167 167 168 169 170 171 172 173 176 179 184 190 194 198 199 195 189 186 190 202 220 236 249 258 264 265
141 141 140 140 140 141 142 143 144 145 145 145 145 146 146 146 146 147 149 151 153 153 153 154 154 154 154 154 155 156 157 158 159 161 163 166 168 169 169 169 167 166 165 165 166 167 168 170 172 174 176 180 186 192 196 200 203 201 197 193 195 204 219 236 248 255 258 258 257
140 141 141 140 140 141 142 144 145 145 145 145 145 146 146 146 146 147 150 152 152 151 151 151 152 153 153 154 155 155 157 158 160 161 163 166 168 170 169 168 166 164 163 163 165 166 169 171 173 176 181 187 193 198 201 202 203 205 205 210 216 227 240 250 255 256 255 252 253
138 139 140 140 141 141 143 144 145 145 144 145 145 145 145 145 146 148 150 151 150 149 150 152 153 155 155 155 155 156 157 159 161 162 163 165 167 169 169 167 164 163 162 163 165 167 170 172 175 179 185 192 197 200 202 205 208 214 222 231 240 247 252 255 255 254 252 251 253
136 138 139 140 141 142 143 143 143 143 143 144 144 144 144 145 146 147 147 148 149 151 154 156 156 156 156 156 156 156 157 159 161 162 163 164 165 167 168 167 164 163 163 164 167 169 172 175 178 183 189 192 196 200 205 211 219 227 237 244 249 250 250 250 250 251 253 254 257
135 136 137 138 139 139 140 140 140 141 142 143 144 144 144 144 141 140 142 147 153 157 158 158 157 156 156 157 157 158 158 159 161 162 162 162 162 164 167 167 166 165 165 167 169 172 175 179 183 186 188 190 195 202 211 221 230 238 242 245 247 247 245 245 248 252 256 258 259
128 129 130 131 132 134 135 137 139 141 143 144 145 144 141 136 134 138 147 156 160 160 159 157 156 156 157 157 158 158 158 158 159 160 160 160 160 162 166 168 168 168 168 170 173 176 180 183 185 185 186 191 198 208 218 229 237 242 243 243 243 245 247 248 250 252 255 258 260